EW1160 Weather Reports


Display with metric or nautical units.
time (UTC)temp
F
wind
direction
speed
MPH
gust
MPH
rain 1hr
in
rain 24hr
in
rain mn
in
humidity
%
barometer
mb
20260903011549 72 4 0.0 0.0 0.06 0.07 0.07 91 1010.2
20260903010048 72 4 0.0 0.0 0.01 0.02 0.02 90 1009.7
20260903004548 72 4 0.0 0.0 0.01 0.02 0.02 90 1009.1
20260903003046 72 4 0.0 0.0 0.02 0.02 0.02 90 1009.3
20260903001533 73 4 0.0 0.0 0.01 0.01 0.01 89 1008.8
20260903000031 73 8 0.0 0.0 0.01 0.01 0.01 88 1008.5
20260902234509 73 226 0.0 0.0 0.01 0.01 0.01 88 1009.4
20260902233011 74 9 0.0 0.0 0.00 0.00 0.00 86 1009.0
20260902231554 74 27 0.0 0.0 0.00 0.00 0.00 85 1009.3
20260902230051 74 16 1.0 9.0 0.00 0.00 0.00 82 1009.8
20260902224540 76 16 2.0 5.0 0.00 0.00 0.00 79 1009.8
20260902223039 76 25 0.0 4.0 0.00 0.00 0.00 79 1009.1
20260902221556 77 25 1.0 5.0 0.00 0.00 0.00 78 1008.8
20260902220039 78 58 0.0 2.0 0.00 0.00 0.00 80 1008.7
20260902214537 75 47 2.0 4.0 0.00 0.00 0.00 83 1008.9
20260902213037 73 10 0.0 0.0 0.00 0.00 0.00 85 1008.8
20260902211535 73 354 0.0 0.0 0.00 0.00 0.00 82 1008.8
20260902210033 81 197 0.0 23.0 0.00 0.00 0.00 66 1009.0
20260902204515 89 185 0.0 2.0 0.00 0.00 0.00 70 1007.9
20260902203016 90 185 2.0 5.0 0.00 0.00 0.00 69 1007.8
20260902201610 90 188 0.0 3.0 0.00 0.00 0.00 72 1008.3
20260902200051 89 177 1.0 4.0 0.00 0.00 0.00 72 1008.3
20260902194556 88 175 0.0 4.0 0.00 0.00 0.00 72 1008.5
20260902193027 88 347 1.0 4.0 0.00 0.00 0.00 73 1008.8
20260902191526 86 343 0.0 3.0 0.00 0.00 0.00 76 1009.0
20260902190006 85 343 2.0 4.0 0.00 0.00 0.00 78 1009.0
20260902184506 86 28 1.0 5.0 0.00 0.00 0.00 77 1009.2
20260902183112 87 201 0.0 4.0 0.00 0.00 0.00 76 1009.1
20260902181545 87 68 0.0 3.0 0.00 0.00 0.00 77 1008.9
20260902180025 85 30 0.0 1.0 0.00 0.00 0.00 79 1009.1
20260902174522 84 30 0.0 5.0 0.00 0.31 0.00 77 1009.6
20260902173005 84 30 2.0 4.0 0.00 0.31 0.00 78 1010.1
20260902171504 83 30 2.0 5.0 0.00 0.31 0.00 78 1010.5
20260902170052 85 299 0.0 3.0 0.00 0.31 0.00 79 1010.7
20260902164603 85 299 0.0 8.0 0.00 0.31 0.00 78 1010.8
20260902163051 85 176 0.0 3.0 0.00 0.31 0.00 79 1010.9
20260902161550 85 176 1.0 4.0 0.00 0.31 0.00 78 1010.9
20260902160054 86 191 0.0 3.0 0.00 0.31 0.00 77 1010.9
20260902154553 85 203 0.0 3.0 0.00 0.31 0.00 77 1010.8
20260902153044 84 203 0.0 3.0 0.00 0.31 0.00 80 1010.7
20260902151541 83 236 0.0 4.0 0.00 0.31 0.00 82 1010.6
20260902150020 82 235 2.0 6.0 0.00 0.31 0.00 80 1010.6
20260902144516 81 233 0.0 8.0 0.00 0.31 0.00 84 1010.8
20260902143056 80 230 0.0 3.0 0.00 0.31 0.00 86 1010.8
20260902141556 80 235 0.0 5.0 0.00 0.31 0.00 88 1010.7
20260902140037 79 186 0.0 4.0 0.00 0.31 0.00 90 1010.8
20260902134531 78 168 0.0 2.0 0.00 0.31 0.00 91 1010.8
20260902133016 77 166 0.0 0.0 0.00 0.31 0.00 92 1010.6
20260902131515 76 160 0.0 0.0 0.00 0.31 0.00 92 1010.8
20260902130027 76 160 0.0 0.0 0.00 0.31 0.00 92 1010.7
20260902124513 75 155 0.0 0.0 0.00 0.31 0.00 93 1010.7
20260902123025 75 154 0.0 0.0 0.00 0.31 0.00 92 1010.4
20260902121511 75 154 0.0 0.0 0.00 0.31 0.00 92 1010.5
20260902120010 74 154 0.0 0.0 0.00 0.31 0.00 92 1010.3
20260902114513 74 154 0.0 0.0 0.00 0.31 0.00 92 1010.1
20260902113058 74 155 0.0 0.0 0.00 0.31 0.00 92 1010.6
20260902111557 74 155 0.0 0.0 0.00 0.31 0.00 92 1010.7
20260902110104 74 156 0.0 0.0 0.00 0.31 0.00 92 1010.3
20260902104559 74 156 0.0 0.0 0.00 0.31 0.00 91 1010.2
20260902103104 74 155 0.0 0.0 0.00 0.31 0.00 91 1010.0
20260902101554 75 154 0.0 0.0 0.00 0.31 0.00 91 1009.9
20260902100053 75 163 0.0 0.0 0.00 0.31 0.00 91 1009.8
20260902094552 75 163 0.0 0.0 0.00 0.31 0.00 90 1009.7
20260902093038 75 163 0.0 0.0 0.00 0.31 0.00 90 1009.9
20260902091534 75 164 0.0 0.0 0.00 0.31 0.00 90 1010.1
20260902090015 76 164 0.0 0.0 0.00 0.31 0.00 89 1010.1
20260902084515 76 164 0.0 0.0 0.00 0.31 0.00 88 1010.0
20260902083056 75 164 0.0 0.0 0.00 0.31 0.00 89 1010.0
20260902081559 75 164 0.0 0.0 0.00 0.31 0.00 90 1009.9
20260902080048 75 116 0.0 0.0 0.00 0.31 0.00 91 1010.0
20260902074536 75 91 0.0 0.0 0.00 0.31 0.00 91 1010.0
20260902073028 75 92 0.0 0.0 0.00 0.31 0.00 91 1009.9
20260902071518 75 90 0.0 0.0 0.00 0.31 0.00 91 1010.0
20260902070059 75 90 0.0 0.0 0.00 0.31 0.00 92 1010.1
20260902064557 75 89 0.0 0.0 0.00 0.31 0.00 92 1010.2
20260902063039 75 89 0.0 0.0 0.00 0.31 0.00 92 1010.2
20260902061540 75 88 0.0 0.0 0.00 0.31 0.00 92 1010.4
20260902060020 75 88 0.0 0.0 0.00 0.31 0.00 92 1010.6
20260902054529 75 88 0.0 0.0 0.00 0.31 0.00 92 1010.8
20260902053004 75 88 0.0 0.0 0.00 0.31 0.00 92 1010.6
20260902051506 75 88 0.0 0.0 0.00 0.31 0.00 92 1010.7
20260902050047 75 88 0.0 0.0 0.00 0.31 0.00 92 1010.6
20260902044544 75 87 0.0 0.0 0.00 0.31 0.00 92 1010.8
20260902043027 75 87 0.0 0.0 0.00 0.31 0.00 92 1010.7
20260902041524 75 84 0.0 0.0 0.00 0.31 0.00 92 1010.6
20260902040006 76 84 0.0 0.0 0.00 0.31 0.00 92 1010.4
20260902034503 76 84 0.0 0.0 0.00 0.31 0.31 92 1010.5
20260902033052 76 84 0.0 0.0 0.00 0.31 0.31 92 1010.5
20260902031546 76 84 0.0 0.0 0.00 0.31 0.31 91 1010.5
20260902030028 77 84 0.0 0.0 0.00 0.31 0.31 91 1010.4
20260902024526 77 83 0.0 0.0 0.00 0.31 0.31 91 1010.4
20260902023022 77 83 0.0 0.0 0.00 0.31 0.31 91 1010.4
20260902021524 78 83 0.0 0.0 0.00 0.31 0.31 91 1010.3
20260902020101 78 79 0.0 0.0 0.00 0.31 0.31 90 1010.3
20260902014557 79 79 0.0 0.0 0.00 0.31 0.31 89 1010.2